| time (UTC) | temp C | wind direction | speed KPH | gust KPH | rain 1hr cm | rain 24hr cm | rain mn cm | humidity % | barometer mb |
| 20260506061512 | 8 | 180 | 0.0 | 0.0 | 0.00 | 0.03 | 0.03 | 95 | 1017.7 |
| 20260506044507 | 9 | 180 | 0.0 | 0.0 | 0.00 | 0.08 | 0.03 | 96 | 1016.8 |
| 20260506043006 | 9 | 180 | 0.0 | 0.0 | 0.00 | 0.08 | 0.03 | 96 | 1016.6 |
| 20260506041503 | 9 | 180 | 0.0 | 0.0 | 0.00 | 0.08 | 0.03 | 95 | 1016.7 |
| 20260506040002 | 9 | 180 | 0.0 | 0.0 | 0.00 | 0.38 | 0.03 | 95 | 1016.4 |
| 20260506034503 | 9 | 180 | 0.0 | 0.0 | 0.00 | 0.38 | 0.03 | 95 | 1016.5 |
| 20260506033100 | 9 | 180 | 0.0 | 0.0 | 0.00 | 0.38 | 0.03 | 95 | 1016.2 |
| 20260506031604 | 9 | 180 | 0.0 | 0.0 | 0.00 | 0.38 | 0.03 | 95 | 1015.7 |
| 20260506030057 | 9 | 180 | 0.0 | 0.0 | 0.00 | 0.38 | 0.03 | 95 | 1015.9 |
| 20260506024558 | 9 | 180 | 0.0 | 0.0 | 0.00 | 0.61 | 0.03 | 95 | 1016.0 |
| 20260506023101 | 9 | 180 | 0.0 | 0.0 | 0.00 | 0.61 | 0.03 | 95 | 1015.6 |
| 20260506021554 | 9 | 180 | 0.0 | 0.0 | 0.00 | 0.61 | 0.03 | 95 | 1015.5 |
| 20260506020154 | 9 | 180 | 0.0 | 0.0 | 0.00 | 0.61 | 0.03 | 95 | 1015.2 |
| 20260506014552 | 10 | 180 | 0.0 | 0.0 | 0.00 | 0.64 | 0.03 | 95 | 1015.2 |
| 20260506013106 | 10 | 180 | 0.0 | 0.0 | 0.00 | 0.64 | 0.03 | 95 | 1015.1 |
| 20260506011557 | 10 | 181 | 0.0 | 0.0 | 0.00 | 0.64 | 0.03 | 95 | 1015.0 |
| 20260506010105 | 9 | 181 | 0.0 | 0.0 | 0.00 | 0.91 | 0.03 | 95 | 1015.0 |
| 20260506004548 | 9 | 181 | 0.0 | 0.0 | 0.00 | 0.91 | 0.03 | 96 | 1015.0 |
| 20260506003048 | 9 | 181 | 0.0 | 0.0 | 0.00 | 0.91 | 0.03 | 95 | 1015.0 |
| 20260506001554 | 9 | 181 | 0.0 | 0.0 | 0.00 | 0.91 | 0.03 | 95 | 1014.9 |
| 20260506000045 | 9 | 181 | 0.0 | 0.0 | 0.00 | 1.04 | 0.03 | 95 | 1014.8 |
| 20260505234545 | 9 | 181 | 0.0 | 0.0 | 0.00 | 1.04 | 0.03 | 95 | 1014.9 |
| 20260505233059 | 9 | 181 | 0.0 | 0.0 | 0.00 | 1.04 | 0.03 | 95 | 1014.7 |
| 20260505231545 | 9 | 181 | 0.0 | 0.0 | 0.00 | 1.04 | 0.03 | 95 | 1015.0 |
| 20260505230052 | 9 | 181 | 0.0 | 0.0 | 0.00 | 1.17 | 0.03 | 95 | 1015.0 |
| 20260505224545 | 9 | 181 | 0.0 | 0.0 | 0.00 | 1.17 | 0.03 | 95 | 1014.9 |
| 20260505223046 | 9 | 181 | 0.0 | 0.0 | 0.00 | 1.17 | 0.03 | 95 | 1015.2 |
| 20260505221542 | 9 | 181 | 0.0 | 0.0 | 0.00 | 1.17 | 0.03 | 94 | 1015.0 |
| 20260505220041 | 9 | 181 | 0.0 | 0.0 | 0.00 | 1.55 | 0.03 | 95 | 1015.0 |
| 20260505214541 | 9 | 181 | 0.0 | 0.0 | 0.00 | 1.55 | 0.03 | 95 | 1015.2 |
| 20260505213037 | 8 | 181 | 0.0 | 0.0 | 0.00 | 1.55 | 0.03 | 96 | 1015.1 |
| 20260505211536 | 8 | 181 | 0.0 | 0.0 | 0.00 | 1.55 | 0.03 | 96 | 1015.2 |
| 20260505210034 | 8 | 181 | 0.0 | 1.6 | 0.00 | 1.55 | 0.03 | 95 | 1015.2 |
| 20260505204534 | 8 | 181 | 0.0 | 0.0 | 0.00 | 1.55 | 0.03 | 95 | 1015.1 |
| 20260505203037 | 8 | 181 | 0.0 | 0.0 | 0.00 | 1.55 | 0.03 | 95 | 1015.0 |
| 20260505201542 | 8 | 181 | 0.0 | 0.0 | 0.00 | 1.55 | 0.03 | 96 | 1015.1 |
| 20260505200033 | 8 | 181 | 0.0 | 0.0 | 0.00 | 1.55 | 0.03 | 96 | 1015.1 |
| 20260505194532 | 8 | 181 | 0.0 | 1.6 | 0.00 | 1.55 | 0.03 | 96 | 1015.2 |
| 20260505193030 | 8 | 331 | 0.0 | 0.0 | 0.00 | 1.55 | 0.03 | 96 | 1015.0 |
| 20260505191527 | 8 | 331 | 0.0 | 0.0 | 0.00 | 1.55 | 0.03 | 96 | 1014.9 |
| 20260505190034 | 8 | 331 | 0.0 | 0.0 | 0.00 | 1.55 | 0.03 | 96 | 1014.9 |
| 20260505184526 | 8 | 331 | 0.0 | 0.0 | 0.00 | 1.55 | 0.03 | 96 | 1014.9 |
| 20260505183023 | 8 | 331 | 0.0 | 0.0 | 0.00 | 1.55 | 0.03 | 96 | 1014.8 |
| 20260505181521 | 8 | 331 | 0.0 | 0.0 | 0.00 | 1.55 | 0.03 | 96 | 1014.7 |
| 20260505180020 | 8 | 331 | 0.0 | 0.0 | 0.00 | 1.55 | 0.03 | 96 | 1014.7 |
| 20260505174520 | 7 | 331 | 0.0 | 0.0 | 0.00 | 1.55 | 0.03 | 96 | 1014.6 |
| 20260505173027 | 8 | 331 | 0.0 | 0.0 | 0.00 | 1.55 | 0.03 | 96 | 1014.6 |
| 20260505171523 | 8 | 331 | 0.0 | 0.0 | 0.00 | 1.55 | 0.03 | 96 | 1014.4 |
| 20260505170019 | 7 | 331 | 0.0 | 0.0 | 0.00 | 1.55 | 0.03 | 96 | 1014.6 |
| 20260505164515 | 7 | 331 | 0.0 | 0.0 | 0.00 | 1.55 | 0.03 | 96 | 1014.4 |
| 20260505163012 | 7 | 331 | 0.0 | 1.6 | 0.00 | 1.55 | 0.03 | 96 | 1014.3 |
| 20260505161509 | 7 | 331 | 0.0 | 0.0 | 0.00 | 1.55 | 0.03 | 96 | 1014.1 |
| 20260505153007 | 7 | 331 | 0.0 | 0.0 | 0.00 | 1.55 | 0.03 | 96 | 1014.1 |
| 20260505151504 | 7 | 331 | 0.0 | 0.0 | 0.00 | 1.55 | 0.03 | 96 | 1013.8 |
| 20260505124654 | 6 | 48 | 0.0 | 0.0 | 0.00 | 1.55 | 0.03 | 96 | 1012.9 |
| 20260505123050 | 6 | 48 | 0.0 | 0.0 | 0.00 | 1.55 | 0.03 | 96 | 1012.8 |
| 20260505121549 | 6 | 48 | 0.0 | 1.6 | 0.00 | 1.55 | 0.03 | 96 | 1012.9 |
| 20260505120104 | 6 | 46 | 0.0 | 0.0 | 0.00 | 1.55 | 0.03 | 96 | 1012.9 |
| 20260505114546 | 6 | 44 | 0.0 | 1.6 | 0.00 | 1.55 | 0.03 | 96 | 1012.9 |
| 20260505113047 | 6 | 45 | 0.0 | 0.0 | 0.00 | 1.55 | 0.03 | 96 | 1012.9 |
| 20260505111544 | 6 | 37 | 0.0 | 1.6 | 0.00 | 1.55 | 0.03 | 96 | 1013.0 |
| 20260505101540 | 6 | 5 | 0.0 | 1.6 | 0.00 | 1.55 | 0.03 | 96 | 1012.9 |
| 20260505100040 | 6 | 329 | 0.0 | 1.6 | 0.00 | 1.55 | 0.03 | 96 | 1012.8 |
| 20260505094538 | 6 | 77 | 0.0 | 1.6 | 0.00 | 1.55 | 0.03 | 96 | 1013.0 |
| 20260505093041 | 6 | 256 | 0.0 | 3.2 | 0.00 | 1.55 | 0.03 | 96 | 1013.2 |
| 20260505091536 | 6 | 153 | 0.0 | 3.2 | 0.00 | 1.55 | 0.03 | 96 | 1013.3 |
| 20260505090043 | 6 | 124 | 0.0 | 6.4 | 0.00 | 1.55 | 0.03 | 96 | 1013.1 |
| 20260505084535 | 6 | 54 | 0.0 | 4.8 | 0.00 | 1.55 | 0.03 | 96 | 1013.3 |
| 20260505083034 | 6 | 355 | 0.0 | 1.6 | 0.00 | 1.55 | 0.03 | 96 | 1013.6 |
| 20260505081539 | 6 | 345 | 0.0 | 4.8 | 0.00 | 1.55 | 0.03 | 96 | 1013.5 |
| 20260505080037 | 6 | 46 | 0.0 | 0.0 | 0.03 | 1.55 | 0.03 | 96 | 1013.6 |
| 20260505074530 | 6 | 46 | 0.0 | 1.6 | 0.03 | 1.55 | 0.03 | 96 | 1013.6 |
| 20260505073045 | 6 | 46 | 0.0 | 0.0 | 0.03 | 1.55 | 0.03 | 96 | 1013.1 |
| 20260505071527 | 6 | 46 | 0.0 | 0.0 | 0.03 | 1.55 | 0.03 | 96 | 1013.0 |